[[{"header":{"parameterUnit":"m.s-1","parameterCategory":1,"la1":30.2991,"la2":30.254,"lo1":-89.0895,"lo2":-89.0444,"dy":0.0017,"dx":0.0017,"nx":28,"ny":28,"refTime":"2024-04-24T09:00:00:Z","depth":0,"parameterNumber":2,"parameterNumberName":"U-component_of_WINDS"},"data":[0,0,0,0,0,0,0,0,0,0,0,0,0,0,0,0,0,0,0,0,0,0,0,0,0,0,0,0,0,0,0,0,0,0,0,0,0,0,0,0,0,0,0,0,0,0,0,0,0,0,0,0,0,0,0,0,0,0,-2.1701,-2.1702,0,-2.1778,-2.1778,-2.1779,-2.1703,-2.17,-2.1697,-2.1694,-2.1773,-2.1778,-2.1783,0,0,0,0,0,0,0,0,0,0,0,0,0,-2.1492,-2.1496,-2.1701,-2.1702,-2.1703,-2.1777,-2.1778,-2.178,-2.1703,-2.17,-2.1696,-2.1693,-2.1771,-2.1777,-2.1783,0,0,0,0,0,0,0,0,0,0,0,0,0,-2.1577,-2.1497,-2.1701,-2.1674,-2.1673,-2.1777,-2.1779,-2.178,-2.1704,-2.17,-2.1695,-2.1691,-2.1769,-2.1777,-2.1784,-2.1919,0,0,-2.1806,-2.1809,0,0,0,0,0,0,0,0,-2.1572,-2.1585,-2.1677,-2.1676,-2.1675,-2.1726,-2.1733,-2.1827,-2.1705,-2.1692,-2.1694,-2.1689,-2.1761,-2.1769,-2.1793,-2.1923,-2.1926,-2.1807,-2.1811,-2.1814,-2.1816,0,0,0,0,0,0,0,-2.1566,-2.1581,-2.1731,-2.1679,-2.1677,-2.1659,-2.1666,-2.1751,-2.1751,-2.1693,-2.1688,-2.1698,-2.1759,-2.1786,-2.1794,-2.1927,-2.1807,-2.1813,-2.1818,-2.1821,-2.2172,-2.2177,0,0,0,0,0,0,-2.1563,-2.1576,-2.1729,-2.1734,-2.1611,-2.1666,-2.1674,-2.1714,-2.175,-2.1751,-2.1701,-2.1694,-2.1776,-2.1786,-2.1797,-2.1958,-2.1814,-2.1821,-2.1825,-2.2167,-2.2173,-2.2179,0,0,0,0,0,0,-2.1559,-2.1577,-2.1726,-2.1654,-2.1671,-2.1675,-2.172,-2.1718,-2.1744,-2.1756,-2.1756,-2.1729,-2.1773,-2.1786,-2.1889,-2.1959,-2.1825,-2.1831,-2.2162,-2.2169,-2.2176,-2.228,0,0,0,0,0,0,-2.1553,-2.1576,-2.1627,-2.1655,-2.1675,-2.1817,-2.1724,-2.1723,-2.1757,-2.1748,-2.1781,-2.1783,-2.177,-2.1879,-2.1897,-2.1967,-2.1837,-2.2155,-2.2165,-2.2174,-2.2271,-2.229,-2.2307,0,0,0,0,0,-2.1546,-2.1654,-2.163,-2.1649,-2.1739,-2.1821,-2.1833,-2.1816,-2.1763,-2.1815,-2.1822,-2.1782,-2.1949,-2.189,-2.1909,-2.1983,-2.2151,-2.2162,-2.2173,-2.2263,-2.2287,-2.2307,0,0,0,0,0,0,-2.1634,-2.1657,-2.1631,-2.1751,-2.1785,-2.1808,-2.1873,-2.1842,-2.1891,-2.1881,-2.1858,-2.1866,-2.1975,-2.1989,-2.1923,-2.2116,-2.2041,-2.2057,-2.2103,-2.2126,-2.2144,-2.2138,-2.1843,0,0,0,0,0,-2.1667,-2.1732,-2.1748,-2.1853,-2.1871,-2.1869,-2.1904,-2.1889,-2.1923,-2.1937,-2.1952,-2.1987,-2.2047,-2.2087,-2.2143,-2.2273,-2.2279,-2.2333,-2.2351,-2.2366,-2.238,-2.245,-2.2474,-2.2215,-2.2215,-2.2215,0,0,-2.1737,-2.1757,-2.1799,-2.1871,-2.1895,-2.1963,-2.1882,-2.1957,-2.2007,-2.1948,-2.2046,-2.2059,-2.2096,-2.2213,-2.2265,-2.2228,-2.2453,-2.238,-2.2392,-2.2398,-2.2464,-2.2488,-2.251,-2.2223,-2.2221,-2.222,0,0,-2.1898,-2.192,-2.2009,-2.2036,-2.2073,-2.2072,-2.2094,-2.2122,-2.2128,-2.2226,-2.2183,-2.2243,-2.2347,-2.2376,-2.2404,-2.2578,-2.2542,-2.2597,-2.2692,-2.2761,-2.2781,-2.2799,-2.2861,-2.2884,-2.261,-2.2611,-2.2611,0,-2.198,-2.2079,-2.2059,-2.2138,-2.2171,-2.2121,-2.2212,-2.2238,-2.2293,-2.2317,-2.2275,-2.2405,-2.2427,-2.255,-2.2592,-2.2617,-2.2641,-2.2593,-2.278,-2.2798,-2.2814,-2.2873,-2.2896,-2.2617,-2.2616,-2.2616,-2.2615,0,-2.2178,-2.2248,-2.2316,-2.237,-2.2411,-2.2495,-2.2488,-2.2532,-2.2513,-2.2516,-2.2617,-2.2642,-2.2702,-2.273,-2.2712,-2.2851,-2.2827,-2.2783,-2.2707,-2.2846,-2.29,-2.2923,-2.2626,-2.2624,-2.2622,-2.262,0,0,-2.2396,-2.2438,-2.2464,-2.2488,-2.2526,-2.258,-2.2663,-2.2722,-2.276,-2.28,-2.2868,-2.2959,-2.2918,-2.295,-2.2935,-2.2996,-2.3132,-2.2944,-2.2944,-2.2978,-2.3287,-2.332,-2.3346,-2.3109,-2.3113,-2.3116,-2.3284,0,-2.2558,-2.2701,-2.2686,-2.2822,-2.2887,-2.2841,-2.2913,-2.2945,-2.295,-2.3006,-2.3012,-2.3076,-2.3018,-2.3037,-2.3095,-2.3103,-2.3193,-2.3091,-2.3173,-2.3176,-2.3164,-2.3375,-2.3409,-2.3566,-2.3305,-2.3308,-2.3311,0,-2.2766,-2.2813,-2.2956,-2.2985,-2.3012,-2.3077,-2.313,-2.3185,-2.322,-2.322,-2.3256,-2.3231,-2.3315,-2.3238,-2.3353,-2.3283,-2.3316,-2.3325,-2.3331,-2.3338,-2.3252,-2.3387,-2.3615,-2.3639,-2.3345,-2.3342,-2.334,0,-2.2911,-2.301,-2.3108,-2.313,-2.3167,-2.3214,-2.3232,-2.3263,-2.3299,-2.3346,-2.337,-2.3426,-2.3457,-2.3501,-2.3492,-2.3437,-2.361,-2.3532,-2.3612,-2.3612,-2.365,-2.3647,-2.3887,-2.3672,-2.3671,-2.3671,-2.367,0,-2.3093,-2.3182,-2.3174,-2.3234,-2.3333,-2.3315,-2.3414,-2.3425,-2.3454,-2.3516,-2.348,-2.3539,-2.3524,-2.3583,-2.3576,-2.3672,-2.3687,-2.3689,-2.3686,-2.3692,-2.3692,-2.3713,-2.3702,-2.3677,-2.3676,-2.3674,-2.3673,0,-2.3271,-2.3269,-2.3373,-2.34,-2.3409,-2.348,-2.3503,-2.356,-2.3563,-2.3643,-2.366,-2.3665,-2.3732,-2.3728,-2.3804,-2.38,-2.3918,-2.3903,-2.3907,-2.3903,-2.3983,-2.3976,-2.4244,-2.4278,-2.4041,-2.4044,-2.4046,0,-2.3388,-2.3455,-2.3489,-2.3528,-2.3549,-2.3613,-2.365,-2.3636,-2.3676,-2.3723,-2.3775,-2.3839,-2.3889,-2.4,-2.401,-2.4068,-2.4053,-2.4144,-2.4062,-2.4066,-2.4055,-2.4051,-2.4058,-2.4159,-2.4162,-2.4164,-2.4166,0,-2.3595,-2.359,-2.3646,-2.3702,-2.3747,-2.3791,-2.383,-2.3864,-2.3854,-2.3901,-2.397,-2.4009,-2.4087,-2.4152,-2.4208,-2.4226,-2.4195,-2.4192,-2.4213,-2.422,-2.4219,-2.4221,-2.395,-2.4186,-2.4184,-2.4182,-2.4181,-2.418,-2.3745,-2.3803,-2.3837,-2.39,-2.3928,-2.3966,-2.4021,-2.4031,-2.4088,-2.415,-2.4139,-2.4216,-2.425,-2.4322,-2.4346,-2.4406,-2.4374,-2.4405,-2.4413,-2.4421,-2.443,-2.421,-2.4416,-2.4416,-2.4415,-2.4415,-2.4414,0,-2.395,-2.397,-2.4028,-2.4084,-2.4134,-2.4101,-2.4143,-2.4187,-2.4256,-2.429,-2.4341,-2.4421,-2.4483,-2.4499,-2.4559,-2.4604,-2.4592,-2.462,-2.4617,-2.4622,-2.4456,-2.4431,-2.463,-2.463,-2.463,-2.463,-2.463,-2.4629,-2.4063,-2.4159,-2.416,-2.427,-2.4289,-2.4364,-2.4391,-2.4426,-2.4454,-2.4544,-2.4596,-2.4606,-2.4633,-2.4695,-2.4751,-2.4754,-2.4778,-2.4813,-2.481,-2.4655,-2.4633,-2.4613,-2.4589,-2.4818,-2.4818,-2.4971,-2.4972,-2.4973]},{"header":{"parameterUnit":"m.s-1","parameterCategory":1,"la1":30.2991,"la2":30.254,"lo1":-89.0895,"lo2":-89.0444,"dy":0.0017,"dx":0.0017,"nx":28,"ny":28,"refTime":"2024-04-24T09:00:00:Z","depth":0,"parameterNumber":3,"parameterNumberName":"V-component_of_WINDS"},"data":[0,0,0,0,0,0,0,0,0,0,0,0,0,0,0,0,0,0,0,0,0,0,0,0,0,0,0,0,0,0,0,0,0,0,0,0,0,0,0,0,0,0,0,0,0,0,0,0,0,0,0,0,0,0,0,0,0,0,0.986,0.9859,0,0.9739,0.9738,0.9736,0.9729,0.973,0.9732,0.9733,0.9606,0.9602,0.9597,0,0,0,0,0,0,0,0,0,0,0,0,0,1.0084,1.008,0.986,0.9859,0.9857,0.9739,0.9737,0.9736,0.9729,0.9731,0.9732,0.9734,0.9608,0.9602,0.9597,0,0,0,0,0,0,0,0,0,0,0,0,0,0.9977,1.0079,0.9861,0.984,0.9837,0.9739,0.9737,0.9735,0.9728,0.9731,0.9733,0.9735,0.961,0.9603,0.9596,0.9511,0,0,0.9574,0.9571,0,0,0,0,0,0,0,0,0.9983,0.9969,0.9844,0.9841,0.9837,0.9751,0.977,0.966,0.9728,0.9769,0.9733,0.9736,0.9653,0.9642,0.9615,0.9505,0.9499,0.9574,0.957,0.9567,0.9565,0,0,0,0,0,0,0,0.9991,0.9974,0.9812,0.9842,0.9838,0.9836,0.9823,0.9749,0.9701,0.9766,0.9765,0.9751,0.9651,0.9622,0.9612,0.9497,0.9574,0.9568,0.9563,0.9561,0.9311,0.9309,0,0,0,0,0,0,1.0003,0.9981,0.9816,0.9809,0.9917,0.983,0.9816,0.9777,0.9702,0.9692,0.9749,0.9751,0.9633,0.962,0.9607,0.9502,0.9567,0.956,0.9556,0.9314,0.9311,0.9308,0,0,0,0,0,0,1.0007,0.9988,0.9821,0.9894,0.9873,0.9824,0.978,0.9773,0.9744,0.9689,0.968,0.9728,0.9634,0.9617,0.9535,0.9498,0.9557,0.955,0.9317,0.9313,0.931,0.9291,0,0,0,0,0,0,1.0014,0.999,0.9957,0.9894,0.9869,0.9751,0.9778,0.9769,0.9732,0.9733,0.9667,0.9658,0.9634,0.9545,0.9528,0.9489,0.9545,0.932,0.9315,0.9311,0.9295,0.9288,0.9281,0,0,0,0,0,1.0022,0.9956,0.9956,0.9936,0.9827,0.9749,0.9735,0.971,0.9729,0.9695,0.9661,0.966,0.9505,0.9537,0.9517,0.9476,0.9322,0.9316,0.9311,0.9298,0.9289,0.9281,0,0,0,0,0,0,1.0015,0.9948,0.9946,0.9858,0.9809,0.9748,0.9705,0.9701,0.9645,0.9648,0.9619,0.9604,0.9522,0.9491,0.9528,0.9389,0.9416,0.9406,0.9413,0.9403,0.9397,0.9405,0.9539,0,0,0,0,0,1.0004,0.9947,0.989,0.9818,0.9794,0.9754,0.9719,0.9704,0.9652,0.9631,0.959,0.9539,0.9479,0.944,0.9381,0.9291,0.9276,0.9253,0.9246,0.9241,0.9232,0.9182,0.9171,0.929,0.9291,0.9291,0,0,0.9979,0.9935,0.99,0.9816,0.9776,0.9717,0.9736,0.9673,0.9628,0.9621,0.9541,0.9509,0.945,0.9364,0.9324,0.9335,0.9196,0.9234,0.923,0.9224,0.9175,0.9164,0.9154,0.9287,0.9287,0.9288,0,0,0.9903,0.9865,0.98,0.9761,0.9701,0.9675,0.966,0.9599,0.9578,0.9498,0.9491,0.9438,0.9335,0.9293,0.9259,0.9169,0.9166,0.9151,0.9114,0.9066,0.9056,0.9048,0.9015,0.9004,0.9143,0.9143,0.9143,0,0.988,0.9791,0.9767,0.9704,0.9666,0.9659,0.9593,0.9556,0.948,0.9454,0.9469,0.934,0.93,0.9203,0.9182,0.9154,0.9135,0.9158,0.906,0.9051,0.9043,0.9011,0.8999,0.9142,0.9142,0.9142,0.9142,0,0.9764,0.9703,0.9658,0.9586,0.9543,0.9479,0.9446,0.9406,0.9395,0.9367,0.9286,0.9238,0.917,0.9146,0.9135,0.9048,0.9057,0.9066,0.9091,0.903,0.9,0.8988,0.9139,0.914,0.914,0.9141,0,0,0.9679,0.9596,0.958,0.9547,0.9482,0.9433,0.9369,0.9304,0.927,0.9218,0.9163,0.9077,0.9085,0.9046,0.903,0.8988,0.8919,0.9002,0.9,0.8987,0.882,0.8813,0.8799,0.8918,0.8915,0.8914,0.8825,0,0.9595,0.948,0.9458,0.9358,0.9301,0.9294,0.9237,0.9191,0.9164,0.9111,0.9081,0.902,0.9036,0.9013,0.8971,0.8936,0.8885,0.8943,0.8865,0.8862,0.8878,0.8784,0.8775,0.8694,0.8813,0.8811,0.881,0,0.9481,0.9428,0.9322,0.9265,0.9241,0.919,0.9129,0.9079,0.9026,0.9009,0.8967,0.8956,0.8888,0.8918,0.8825,0.8864,0.8832,0.881,0.8807,0.8797,0.8831,0.877,0.8667,0.8655,0.8791,0.8792,0.8794,0,0.9428,0.933,0.9254,0.9227,0.9159,0.9124,0.9094,0.9043,0.9006,0.8952,0.8927,0.8866,0.8832,0.8785,0.8758,0.8783,0.8666,0.8694,0.8649,0.865,0.8623,0.8625,0.8512,0.8605,0.8605,0.8605,0.8606,0,0.9336,0.9271,0.923,0.9183,0.9111,0.9086,0.9015,0.8985,0.8941,0.8888,0.8879,0.8829,0.8797,0.8743,0.8722,0.8647,0.8632,0.8616,0.8611,0.8616,0.8618,0.8593,0.8597,0.8602,0.8603,0.8603,0.8604,0,0.9263,0.9233,0.915,0.9093,0.9077,0.9026,0.8977,0.8931,0.8905,0.8838,0.8821,0.878,0.8716,0.8685,0.8605,0.8591,0.8506,0.8505,0.8523,0.8521,0.8478,0.8482,0.8344,0.8324,0.8431,0.843,0.8429,0,0.9205,0.9156,0.9094,0.9058,0.9027,0.897,0.8932,0.8906,0.8867,0.8804,0.8766,0.8702,0.8649,0.8547,0.8509,0.8448,0.8445,0.8401,0.8436,0.8442,0.8443,0.8446,0.844,0.8394,0.8393,0.8392,0.8391,0,0.9106,0.9094,0.9039,0.898,0.8935,0.8886,0.8839,0.881,0.8777,0.8733,0.8668,0.8627,0.8547,0.8483,0.842,0.8388,0.8384,0.8381,0.8368,0.8371,0.8384,0.8376,0.8505,0.8384,0.8385,0.8385,0.8386,0.8386,0.9038,0.8993,0.8943,0.8883,0.8845,0.8801,0.8755,0.8724,0.867,0.8602,0.8591,0.8522,0.8471,0.8386,0.8353,0.8298,0.8308,0.8288,0.8283,0.8278,0.8275,0.8394,0.8287,0.8287,0.8287,0.8287,0.8287,0,0.8936,0.8904,0.8849,0.8784,0.8737,0.8739,0.8686,0.8646,0.8586,0.854,0.8488,0.8414,0.8352,0.8311,0.8248,0.8212,0.8209,0.8197,0.8198,0.8191,0.827,0.8288,0.8201,0.8201,0.8201,0.8201,0.8201,0.8201,0.8878,0.8803,0.8785,0.8692,0.866,0.8592,0.8562,0.8522,0.8485,0.8402,0.8351,0.8325,0.8281,0.8215,0.8159,0.8148,0.8125,0.8113,0.8102,0.8177,0.8186,0.8194,0.821,0.8108,0.8108,0.8027,0.8026,0.8026]}]]